AO-07 1 07530U 74089B 19212.87672669 -.00000045 00000-0 -33289-6 0 9991 2 07530 101.7478 180.1008 0011717 264.3152 149.8133 12.53639031 45936 UO-11 1 14781U 84021B 19213.08216171 .00000015 00000-0 79502-5 0 9992 2 14781 97.6089 235.7437 0008751 167.1843 192.9596 14.83097887905194 LO-19 1 20442U 90005G 19213.73000655 -.00000025 00000-0 69852-5 0 9991 2 20442 98.6500 155.6610 0012294 24.8818 335.2956 14.32929560542684 HUBBLE 1 20580U 90037B 19213.60082918 .00000345 00000-0 10035-4 0 9999 2 20580 28.4693 281.5888 0002457 235.8079 253.2396 15.09249541407530 MET-2/21 1 22782U 93055A 19212.91495950 .00000053 00000-0 34598-4 0 9991 2 22782 082.5504 128.7784 0023581 058.6559 010.0154 13.83821583308577 AO-27 1 22825U 93061C 19213.50890438 -.00000016 00000-0 11945-4 0 9993 2 22825 98.9054 203.1504 0007542 226.4587 133.5968 14.30063375348218 IO-26 1 22826U 93061D 19213.01071511 -.00000019 00000-0 10521-4 0 9995 2 22826 98.8993 202.6267 0008187 216.1109 143.9520 14.30397015348346 FO-29 1 24278U 96046B 19212.88215102 -.00000025 00000-0 80438-5 0 9996 2 24278 098.5431 000.4421 0351166 127.9341 235.4090 13.53092957133391 NOAA-15 1 25338U 98030A 19213.55326687 .00000057 00000-0 42780-4 0 9996 2 25338 98.7451 234.7372 0011548 113.4412 246.7983 14.25924532103505 GO-32 1 25397U 98043D 19212.77196527 -.00000029 00000-0 63361-5 0 9995 2 25397 98.6900 152.3980 0000176 313.1197 46.9967 14.23668238 94004 ISS 1 25544U 98067A 19214.01193287 -.00004249 00000-0 -63955-4 0 9991 2 25544 51.6445 133.9186 0006424 207.4377 341.8004 15.51013098182367 NO-44 1 26931U 01043C 19212.56782855 -.00000037 00000-0 17593-4 0 9990 2 26931 067.0499 253.0397 0007337 275.7230 084.3035 14.30548140931100 SO-50 1 27607U 02058C 19212.78688141 -.00000033 00000-0 16296-4 0 9990 2 27607 64.5547 277.8390 0079750 248.2333 111.0269 14.75561672893390 CO-55 1 27844U 03031E 19212.92073440 .00000026 00000-0 31228-4 0 9994 2 27844 098.6837 220.4872 0008580 265.8193 094.2005 14.22187455834394 CO-57 1 27848U 03031J 19212.92518616 .00000016 00000-0 27307-4 0 9999 2 27848 098.6914 221.0010 0008503 279.0628 080.9588 14.21781591834253 RS-22 1 27939U 03042A 19213.70694097 .00000136 00000-0 32991-4 0 9995 2 27939 98.0460 348.6778 0011758 290.5552 69.4397 14.66793347846996 NOAA-18 1 28654U 05018A 19213.55624567 .00000090 00000-0 73741-4 0 9990 2 28654 99.0926 261.1760 0015103 57.3691 302.8935 14.12441639731710 CO-58 1 28895U 05043F 19212.91836114 .00000056 00000-0 19527-4 0 9991 2 28895 097.9649 354.1816 0016124 211.0300 148.9952 14.63678513733574 Falconsat-3 1 30776U 07006E 19213.29447401 .00001375 00000-0 39429-4 0 9990 2 30776 35.4341 172.3721 0002344 167.2512 192.8274 15.36311560687392 CO-65 1 32785U 08021C 19213.18434702 .00000100 00000-0 16347-4 0 9997 2 32785 97.5505 210.8495 0014541 115.6687 244.6034 14.88325573610158 AAUSAT2 1 32788U 08021F 19213.22946466 .00000062 00000-0 10691-4 0 9993 2 32788 97.4960 227.0335 0013149 58.4656 301.7847 14.94756466611425 DO-64 1 32789U 08021G 19213.70722362 .00000447 00000-0 33863-4 0 9997 2 32789 97.4612 262.0382 0011486 342.7860 17.2977 15.07023510613594 CO-66 1 32791U 08021J 19212.99533797 .00000073 00000-0 12786-4 0 9998 2 32791 97.5282 216.6862 0015058 93.3896 266.9045 14.90842128610564 RS-30 1 32953U 08025A 19213.74977196 .00000020 00000-0 75656-4 0 9998 2 32953 82.5033 117.3712 0020301 34.5507 325.6885 12.43090787507782 PRISM 1 33493U 09002B 19212.85138997 .00000308 00000-0 32557-4 0 9995 2 33493 98.1203 135.4433 0016033 43.9515 316.2977 14.96683255571603 NOAA-19 1 33591U 09005A 19213.61138674 .00000065 00000-0 60854-4 0 9995 2 33591 99.1816 205.8014 0012927 254.4570 105.5174 14.12368553540106 TISAT-1 1 36799U 10035E 19212.96493493 .00000259 00000-0 32214-4 0 9997 2 36799 98.1610 6.5650 0011098 308.1456 51.8760 14.91125261491215 JUGNU 1 37839U 11058B 19212.90364830 .00000271 00000-0 27576-5 0 9995 2 37839 019.9621 072.7330 0018935 083.5275 029.9962 14.12654580403266 SRMSAT 1 37841U 11058D 19212.93603653 .00000275 00000-0 59557-5 0 9998 2 37841 019.9719 130.2056 0011722 311.8929 120.7272 14.10635637402715 AO-71 1 37854U 11061E 19212.73175452 .00000747 00000-0 46181-4 0 9997 2 37854 101.6980 133.0946 0160437 298.0792 060.4279 15.06500449423470 HRBE 1 37855U 11061F 19213.19784100 .00000640 00000-0 40196-4 0 9997 2 37855 101.7107 131.1256 0173252 307.9206 50.6451 15.05507411423327 ALMASAT-1 1 38078U 12006B 19213.20533304 .00018844 41155-5 10465-3 0 9996 2 38078 69.4251 141.6895 0157697 195.0882 277.8381 15.64768537404294 HORYU-2 1 38340U 12025D 19213.03782912 .00000079 00000-0 19623-4 0 9997 2 38340 98.3262 252.9225 0011176 353.1232 6.9821 14.75732625387558 RS-40 1 38735U 12041C 19213.67065340 .00000025 00000-0 11023-3 0 9998 2 38735 82.4736 200.6648 0017552 136.1489 224.0993 12.42578960318012 BEESAT-3 1 39135U 13015F 19213.04091020 .00000288 00000-0 24205-4 0 9998 2 39135 64.8687 258.8984 0027246 312.3700 47.5119 15.17520415346824 BEESAT-2 1 39136U 13015G 19213.22612387 .00000117 00000-0 15950-4 0 9992 2 39136 64.8689 262.2514 0021338 300.4400 59.4618 15.16944817346771 ZACUBE-1 1 39417U 13066B 19212.94193806 .00000111 00000-0 20461-4 0 9995 2 39417 097.5619 224.0128 0057402 251.7725 107.7236 14.81129581307443 TRITON-1 1 39427U 13066M 19212.87867361 .00000151 00000-0 32039-4 0 9990 2 39427 97.6793 187.5942 0114627 27.9001 332.8288 14.67857142304673 GOMX-1 1 39430U 13066Q 19213.71298248 .00000075 00000-0 22136-4 0 9992 2 39430 97.7496 167.3734 0152299 115.1839 246.5234 14.59264896303028 LO-74 1 39440U 13066AA 19213.61655071 .00000107 00000-0 22124-4 0 9996 2 39440 97.6033 209.4628 0078911 302.9591 56.4049 14.75868047306452 AO-73 1 39444U 13066AE 19212.91861106 .00000134 00000-0 22958-4 0 9995 2 39444 097.5599 225.9784 0056580 245.3203 114.2113 14.81951136305741 SPROUT 1 39770U 14029E 19213.76366547 .00000297 00000-0 38987-4 0 9999 2 39770 97.8854 316.7740 0008206 307.8437 52.2025 14.87374096281382 DUCHIFAT-1 1 40021U 14033M 19213.37767876 .00000092 00000-0 15268-4 0 9992 2 40021 97.9231 138.1162 0011348 266.7596 93.2323 14.90650436278052 NANOSATCBR1 1 40024U 14033Q 19213.83049700 .00000096 00000-0 15936-4 0 9991 2 40024 97.9123 135.8807 0010686 269.0196 90.9796 14.89862421278012 EO-79 1 40025U 14033R 19213.31470950 .00000160 00000-0 22989-4 0 9998 2 40025 97.9045 132.9279 0010967 277.6417 82.3554 14.88959477277811 DTUSAT-2 1 40030U 14033W 19212.71771967 .00000148 00000-0 21935-4 0 9995 2 40030 097.8960 130.4201 0010420 275.1258 084.8769 14.88550359277147 EO-80 1 40032U 14033Y 19213.19549956 .00000138 00000-0 20874-4 0 9991 2 40032 97.8967 130.8972 0010393 274.0001 86.0028 14.88493249277717 ANTELSAT 1 40034U 14033AA 19213.21574280 .00000121 00000-0 25434-4 0 9993 2 40034 97.7556 78.5320 0057765 317.2995 42.3732 14.74116234275089 VELOX-1 1 40057U 14034E 19213.35280594 .00000133 00000-0 26218-4 0 9990 2 40057 98.2400 337.3933 0012165 93.5051 266.7547 14.77683183274211 DAURIA DX 1 1 40071U 14037C 19213.86757142 .00000044 00000-0 13127-4 0 9999 2 40071 98.4315 10.0183 0009679 84.2076 276.0245 14.81279463273794 UKUBE-1 1 40074U 14037F 19213.65752690 .00000192 00000-0 30170-4 0 9993 2 40074 98.4417 18.1225 0006212 73.5915 286.5976 14.84072104274175 HODOYOSHI-1 1 40299U 14070B 19213.73441478 .00000278 00000-0 14626-4 0 9990 2 40299 97.3483 292.5734 0011386 245.1319 274.1165 15.23396759262978 CHUBUSAT-1 1 40300U 14070C 19213.71198030 .00000285 00000-0 15426-4 0 9991 2 40300 97.3246 286.7784 0018644 261.8360 216.8683 15.22117663262717 QSAT-EOS 1 40301U 14070D 19213.43845889 .00000774 00000-0 32700-4 0 9999 2 40301 97.3257 289.7711 0024323 242.8406 180.7136 15.25997402262963 FIREBIRD FU3 1 40377U 15003B 19212.90265729 .00001086 00000-0 46929-4 0 9994 2 40377 099.1155 201.9923 0125886 306.9222 052.0527 15.18906187248475 FIREBIRD FU4 1 40378U 15003C 19213.54839316 .00001238 00000-0 52785-4 0 9991 2 40378 99.1158 202.8493 0126036 304.6313 54.3084 15.18917473248580 GRIFEX 1 40379U 15003D 19213.83342804 .00000984 00000-0 46199-4 0 9994 2 40379 99.1153 196.9857 0134443 322.9238 36.2758 15.15569195248277 NO-84 1 40654U 15025D 19212.34990117 .00005953 00000 0 84802-4 0 6838 2 40654 54.9889 338.1072 0138904 76.2021 285.4488 15.47642970119051 NO-83 1 40655U 15025E 19212.29596293 .00037603 11191-4 16486-3 0 8356 2 40655 54.9625 213.0712 0049693 143.9981 216.4389 15.83762426120465 DEORBITSAIL 1 40719U 15032E 19213.29202657 .00000231 00000-0 40076-4 0 9998 2 40719 97.9036 104.2217 0016566 160.0492 200.1369 14.76761670218692 NUDT-PHONESAT 1 40900U 15049B 19213.73357067 .00001214 00000-0 54738-4 0 9995 2 40900 97.4367 222.6351 0013974 36.6255 51.3738 15.22886773214365 XW-2A 1 40903U 15049E 19213.38369277 .00000974 00000-0 24859-4 0 9998 2 40903 97.3346 256.3884 0013550 354.5578 62.3433 15.41949378216985 XW-2C 1 40906U 15049H 19213.70195478 .00000124 00000-0 99928-5 0 9994 2 40906 97.4680 215.0511 0016177 50.0101 38.2406 15.15701271213660 XW-2D 1 40907U 15049J 19213.73955024 .00000481 00000-0 28546-4 0 9992 2 40907 97.4658 214.7662 0015560 47.9389 37.2574 15.15893736213682 LILACSAT-2 1 40908U 15049K 19213.81259809 .00000202 00000-0 14756-4 0 9999 2 40908 97.4793 213.6369 0017315 53.1213 24.9943 15.13818376213486 XW-2E 1 40909U 15049L 19213.74649642 .00000613 00000-0 33587-4 0 9999 2 40909 97.4596 217.6523 0014857 44.0514 41.1934 15.17827414213876 XW-2F 1 40910U 15049M 19213.66143223 .00000730 00000-0 39862-4 0 9998 2 40910 97.4625 216.7403 0016082 41.0995 52.8431 15.17341940213685 XW-2B 1 40911U 15049N 19213.77451958 .00000186 00000-0 13175-4 0 9992 2 40911 97.4675 215.4566 0015398 48.6862 38.0249 15.15821683213589 DCBB 1 40912U 15049P 19213.02730072 .00000514 00000-0 27272-4 0 9996 2 40912 97.4495 219.8172 0015735 27.4608 35.5935 15.19656613213890 TW-1C 1 40926U 15051B 19213.37410970 .00007198 00000-0 10343-3 0 9999 2 40926 97.1326 259.5033 0007293 197.6281 217.7770 15.56371993216956 TW-1A 1 40928U 15051D 19213.78309013 .00001726 00000-0 43871-4 0 9995 2 40928 97.1435 244.1092 0009341 275.6604 172.5813 15.40952450215968 IO-86 1 40931U 15052B 19213.04947713 .00000539 00000-0 -14077-4 0 9992 2 40931 5.9962 107.2999 0012918 46.7676 313.5288 14.76609966207681 LQSat 1 40958U 15057A 19213.78366484 -.00000000 00000-0 75884-5 0 9994 2 40958 97.8963 281.7840 0019616 99.5140 260.8286 14.73085010205290 AO-85 1 40967U 15058D 19213.15907404 .00000046 00000 0 23620-4 0 7647 2 40967 64.7789 26.3809 0195743 188.8415 170.9229 14.75967462114154 ATHENOXAT-1 1 41168U 15077C 19212.53988910 .00001353 00000-0 35804-4 0 9994 2 41168 014.9880 262.0522 0011711 329.9888 029.9762 15.13681268200489 ChubuSat-2 1 41338U 16012B 19212.47538318 .00000202 00000-0 89016-5 0 9996 2 41338 031.0020 232.8743 0013772 167.0937 193.0052 15.00162022189343 ChubuSat-3 1 41339U 16012C 19213.43780931 .00000189 00000-0 79032-5 0 9995 2 41339 31.0099 224.7956 0013560 184.5959 175.4556 15.00337096189482 Horyu-4 1 41340U 16012D 19213.18788280 .00000247 00000-0 11973-4 0 9998 2 41340 31.0037 217.3745 0013995 200.4989 159.5086 15.01281645189551 OUFTI-1 1 41458U 16025C 19212.78076095 .00001028 00000-0 56467-4 0 9996 2 41458 98.1026 301.8175 0165679 211.7665 147.3483 15.05873963179056 e-st@r-II 1 41459U 16025D 19213.80445519 .00000751 00000-0 42788-4 0 9995 2 41459 98.1009 302.5288 0166988 209.9061 149.2567 15.05502614179184 AAUSAT4 1 41460U 16025E 19213.72503767 .00002208 00000-0 11397-3 0 9998 2 41460 98.0974 303.7975 0157493 202.3192 157.1159 15.07416974179309 LO-87 1 41557U 16033B 19213.74583480 .00000811 00000-0 33052-4 0 9997 2 41557 97.4180 300.9911 0015002 137.4529 222.7875 15.27276469176810 NuSat2 1 41558U 16033C 19213.79086519 .00000810 00000-0 31210-4 0 9997 2 41558 97.4208 302.2251 0014038 137.3844 222.8488 15.29184502176876 Lapan A3 1 41603U 16040E 19213.89148824 .00000051 00000-0 55267-5 0 9991 2 41603 97.3577 271.5069 0011983 241.6867 203.9683 15.19727257172456 Swayam 1 41607U 16040J 19213.41380620 .00000842 00000-0 38309-4 0 9990 2 41607 97.3628 274.6418 0012008 233.0931 126.9207 15.23368791172539 Pratham 1 41783U 16059A 19212.75569857 .00000037 00000-0 16455-4 0 9996 2 41783 98.0645 271.3803 0032291 247.6574 112.1205 14.63001556151845 AlSat 1N 1 41789U 16059G 19213.73267896 .00000013 00000-0 11520-4 0 9991 2 41789 98.0677 274.4261 0027275 233.7094 126.1586 14.64252140152090 ScatSat 1 41790U 16059H 19213.85684322 -.00000016 00000-0 69791-5 0 9991 2 41790 98.2062 257.8663 0004928 174.3948 185.7298 14.50886005150739 TY-1 1 41844U 16066D 19213.87575184 .00000507 00000-0 23589-4 0 9994 2 41844 97.4047 220.7230 0016183 38.1670 33.1767 15.24324309151427 Pegasus-1 1 41846U 16066F 19212.68492304 .00000176 00000-0 36137-4 0 9991 2 41846 098.7083 253.5623 0368676 110.5649 253.5495 14.37593263142731 CAS-2T 1 41847U 16066G 19212.75063498 .00000052 00000-0 17398-4 0 9999 2 41847 098.7025 254.1584 0367056 106.8183 257.3599 14.37996852143181 EO-88 1 42017U 17008BX 19213.25045387 .00000905 00000-0 38445-4 0 9992 2 42017 97.4007 279.8917 0006854 30.5850 329.5786 15.25603325136563 nSIGHT1 1 42726U 98067MF 19213.82812750 .00017521 00000-0 13152-3 0 9991 2 42726 51.6357 82.7230 0003838 351.8270 8.2665 15.72698620124763 CAS-4B 1 42759U 17034B 19212.82197664 -.00000070 00000-0 92401-5 0 9999 2 42759 43.0191 353.8973 0010526 168.2094 343.6224 15.09603501117350 CAS-4A 1 42761U 17034D 19213.83974189 .00000079 00000-0 18358-4 0 9995 2 42761 43.0195 347.8126 0011225 176.3088 325.9286 15.09682463117502 UCLSat 1 42765U 17036A 19212.70998123 .00000731 00000-0 34177-4 0 9992 2 42765 097.3482 269.7950 0013240 080.6406 279.6327 15.22799432117606 NIUSat 1 42766U 17036B 19212.72378459 .00000610 00000-0 30338-4 0 9990 2 42766 97.3477 268.1250 0017324 71.9696 288.3426 15.21154648116775 LituanicaSAT 2 1 42768U 17036D 19213.21258547 .00001300 00000-0 58259-4 0 9991 2 42768 97.3518 269.9127 0016727 70.1454 290.1584 15.22894645116937 Aalto 1 1 42775U 17036L 19213.13852849 .00000417 00000-0 21616-4 0 9990 2 42775 97.3464 268.8623 0015621 70.7244 289.5680 15.21376777116815 URSA MAIOR 1 42776U 17036M 19212.70088199 .00000532 00000-0 26601-4 0 9999 2 42776 097.3474 268.5967 0015456 072.1137 288.1784 15.21512529116758 Max Valier Sat 1 42778U 17036P 19213.37966105 .00000582 00000-0 28395-4 0 9994 2 42778 97.3515 270.0776 0014079 73.9613 286.3173 15.22063983116882 Pegasus 1 42784U 17036V 19213.13578961 .00000618 00000-0 29557-4 0 9995 2 42784 97.3485 270.0184 0013776 79.7373 280.5416 15.22546616116872 NUDATSat 1 42787U 17036Y 19212.84327810 .00001101 00000-0 48945-4 0 9990 2 42787 097.3515 270.4809 0013039 071.5837 288.6809 15.23536970116715 SUCHAI 1 1 42788U 17036Z 19213.39378488 .00000845 00000-0 38868-4 0 9996 2 42788 97.3490 270.5992 0013335 78.2876 281.9856 15.22972380117007 SKCUBE 1 42789U 17036AA 19212.68967050 .00000799 00000-0 37009-4 0 9991 2 42789 097.3486 269.8447 0013218 080.5340 279.7391 15.22867359116817 VZLUSAT 1 1 42790U 17036AB 19212.69881829 .00001067 00000-0 47509-4 0 9998 2 42790 097.3502 270.3420 0012789 079.7754 280.4924 15.23530568116841 VENTA 1 1 42791U 17036AC 19212.72909250 .00000722 00000-0 33706-4 0 9993 2 42791 097.3485 269.9345 0012863 080.8914 279.3777 15.22877275116814 Robusta 1B 1 42792U 17036AD 19213.33853507 .00000812 00000-0 37373-4 0 9999 2 42792 97.3487 270.6379 0012788 79.2239 281.0437 15.23037415116932 D-SAT 1 42794U 17036AF 19213.69500119 .00000043 00000-0 92610-5 0 9990 2 42794 97.5364 256.4531 0126353 355.7441 4.2692 14.91113271114893 TechnoSat 1 42829U 17042E 19213.30147050 .00000141 00000-0 19652-4 0 9998 2 42829 97.5589 104.3588 0012648 276.0163 83.9614 14.90984252111430 TOMSK-TPU 120 1 42910U 98067MZ 19213.06712995 .00053756 00000-0 19263-3 0 9991 2 42910 51.6335 62.5455 0001326 339.7214 156.6551 15.88238900111915 TANYUSHA 2 1 42912U 98067NB 19213.77566668 .00133666 18580-4 28011-3 0 9991 2 42912 51.6353 50.8521 0001914 280.9560 167.5851 15.98698817112132 TNS 0-2 1 42914U 98067ND 19213.75070310 .00069148 00000-0 23313-3 0 9992 2 42914 51.6327 59.2596 0001981 315.9273 44.1575 15.89358770112015 QIKCOM-1 1 42983U 98067NF 19213.74253585 .00002102 00000-0 32862-4 0 9991 2 42983 51.6402 119.0455 0003432 294.9011 65.1624 15.59052651100216 AO-91 1 43017U 17073E 19213.04546215 .00000463 00000-0 41450-4 0 9997 2 43017 97.7218 132.7074 0258734 17.5911 343.4056 14.78583995 91664 EcAMSat 1 43019U 98067NG 19213.76997584 .00004138 00000-0 53218-4 0 9997 2 43019 51.6410 113.2745 0003798 272.7891 87.2668 15.61592991182615 PICSAT 1 43132U 18004X 19212.78706608 .00000848 00000-0 38361-4 0 9998 2 43132 97.4861 280.5172 0011445 102.1169 258.1351 15.23634993 86060 AO-92 1 43137U 18004AC 19213.76706442 .00000619 00000-0 28923-4 0 9997 2 43137 97.4851 281.4667 0010996 100.5659 259.6817 15.23513127 86203 TianYi 2 1 43155U 18008A 19213.85263216 .00000001 00000-0 38753-5 0 9996 2 43155 97.4847 285.4617 0017913 167.7747 326.7329 15.11175312 84496 Zhou Enlai 1 43156U 18008B 19213.84835596 -.00000017 00000-0 27833-5 0 9997 2 43156 97.4896 285.3465 0015106 164.7787 331.8554 15.10679623 84461 TianYi 6 1 43158U 18008D 19213.77516110 .00000021 00000-0 51241-5 0 9993 2 43158 97.4827 284.7104 0013992 163.1021 345.7585 15.10268620 84419 S-Net G 1 43186U 18014G 19213.75130305 .00000389 00000-0 39131-4 0 9997 2 43186 97.7059 121.5603 0010237 211.3412 148.7201 14.96655657 81721 S-Net H 1 43187U 18014H 19212.81512440 .00000281 00000-0 29728-4 0 9990 2 43187 097.7057 120.6253 0010194 214.9213 145.1341 14.96655072081582 S-Net J 1 43188U 18014J 19213.75093112 .00000376 00000-0 38010-4 0 9994 2 43188 97.7061 121.5653 0010215 211.4846 148.5765 14.96655349 81720 S-Net K 1 43189U 18014K 19212.81526515 .00000290 00000-0 30454-4 0 9998 2 43189 097.7058 120.6226 0010175 214.9512 145.1043 14.96654522080134 FMN 1 1 43192U 18015A 19213.72902473 .00001165 00000-0 50341-4 0 9994 2 43192 97.4042 340.9319 0017252 135.1360 331.2542 15.24365305 83029 Shaonian Xing 1 43199U 18015H 19213.39198476 .00000848 00000-0 36903-4 0 9999 2 43199 97.3827 339.6317 0017976 147.0281 289.6419 15.24852811 83028 1KUNS-PF 1 43466U 98067NP 19213.73262113 .00016138 00000-0 15116-3 0 9990 2 43466 51.6373 110.6823 0000373 75.1548 284.9490 15.67393132 69825 UBAKUSAT 1 43467U 98067NQ 19213.14086472 .00008267 00000-0 93178-4 0 9997 2 43467 51.6375 118.7358 0001533 220.0543 140.0339 15.63505205 69674 Irazu 1 43468U 98067NR 19212.93558463 .00020028 00000-0 16266-3 0 9999 2 43468 051.6363 110.5737 0000583 081.9638 278.1425 15.70709429169746 EnduroSat One 1 43551U 98067NZ 19213.15623207 .00011176 00000-0 12261-3 0 9991 2 43551 51.6379 121.0890 0004781 317.6914 42.3711 15.63773982 59871 EQUISat 1 43552U 98067PA 19212.91667716 .00007540 00000-0 89246-4 0 9996 2 43552 051.6391 124.0146 0005213 313.9547 046.1016 15.62382836059777 UiTMSat 1 1 43589U 98067PD 19212.91592578 .00008677 00000-0 10107-3 0 9990 2 43589 051.6364 124.6980 0004615 324.5003 035.5683 15.62570957055501 Maya 1 1 43590U 98067PE 19212.14305479 .00009600 00000-0 11115-3 0 9996 2 43590 51.6361 128.5412 0004795 322.6054 37.4606 15.62577183 55310 Bhutan 1 1 43591U 98067PF 19212.77168257 .00010584 00000-0 12160-3 0 9991 2 43591 051.6378 125.2640 0004885 325.0828 034.9845 15.62648026055415 SiriusSat 1 1 43595U 98067PG 19212.58870533 .00009413 00000-0 11246-3 0 9994 2 43595 051.6366 127.7671 0002427 274.8127 085.2590 15.61786244054543 SiriusSat 2 1 43596U 98067PH 19212.81540738 .00009294 00000-0 11178-3 0 9993 2 43596 51.6376 127.0699 0002970 275.2760 84.7895 15.61631120 54576 Tanusha-3 1 43597U 98067PJ 19213.27976583 .00012858 00000-0 14239-3 0 9997 2 43597 51.6359 122.6037 0002487 298.7063 61.3681 15.63374964 54671 SurfSat 1 43614U 18070B 19212.48684508 .00001644 00000-0 44477-4 0 9997 2 43614 093.0236 021.3181 0017785 134.1703 226.1016 15.37655406048985 CP-7 DAVE 1 43615U 18070C 19212.49485918 .00001640 00000-0 44514-4 0 9991 2 43615 093.0239 021.3217 0017878 133.5883 226.6858 15.37570097048985 ELFIN-B 1 43616U 18070D 19212.87523208 .00002319 00000-0 61452-4 0 9993 2 43616 093.0201 021.3888 0018736 135.7481 224.5275 15.38243428049056 ELFIN-A 1 43617U 18070E 19212.86782752 .00002253 00000-0 59661-4 0 9990 2 43617 093.0256 021.6344 0017992 132.7285 227.5487 15.38289186049058 STARS-Me Mother 1 43640U 98067PQ 19213.34192438 .00005704 00000-0 78249-4 0 9997 2 43640 51.6377 128.3271 0004501 260.0955 99.9529 15.59003558 46531 CubeBel 1 1 43666U 18083E 19213.12901358 .00000624 00000-0 34326-4 0 9994 2 43666 97.5184 237.3069 0016232 42.4444 0.8216 15.17639331 41873 Changshagaoxin 1 43669U 18083H 19213.38957960 .00000480 00000-0 27815-4 0 9990 2 43669 97.5046 236.7412 0011903 36.8504 323.3544 15.16830469 41851 Ten-Koh 1 43677U 18084G 19213.20127888 .00000140 00000-0 20287-4 0 9998 2 43677 97.8558 326.6582 0017125 135.1885 225.0719 14.90179203 41096 PO-101 1 43678U 18084H 19214.08332058 .00000184 00000-0 24019-4 0 9998 2 43678 97.8556 328.1488 0010380 149.3804 210.8027 14.91562812 41267 IRVINE 01 1 43693U 18088D 19213.22152057 .00001337 00000-0 57360-4 0 9999 2 43693 85.0360 289.3697 0019736 39.5705 320.6973 15.21502959 39986 QO-100 1 43700U 18090A 19212.81987191 .00000134 00000-0 00000-0 0 9999 2 43700 000.0190 084.4970 0001472 066.1067 119.5129 01.00271551002482 Reaktor Hello World 1 43743U 18096AA 19213.87952154 .00000678 00000-0 28577-4 0 9996 2 43743 97.4585 283.8260 0018145 175.2206 274.3992 15.26671298 37476 MinXSS-2 1 43758U 18099A 19212.77822094 -.00000220 00000-0 -14644-4 0 9997 2 43758 097.7433 284.3191 0015665 178.3513 181.7762 14.95430109035872 AO-95 1 43770U 18099N 19213.75007824 .00000571 00000-0 57734-4 0 9990 2 43770 97.7434 285.0527 0014646 180.9097 179.2099 14.94784719 36001 RANGE-B 1 43772U 18099Q 19212.73184315 .00000304 00000-0 33170-4 0 9992 2 43772 097.7486 284.2351 0014557 172.0410 188.1044 14.94893820035842 RANGE-A 1 43773U 18099R 19213.20630251 .00000423 00000-0 44134-4 0 9995 2 43773 97.7379 284.3797 0013942 170.1198 190.0299 14.94814610 35910 MOVE-II 1 43780U 18099Y 19212.77143661 .00000038 00000-0 87634-5 0 9993 2 43780 097.7425 284.1373 0013574 181.8928 178.2244 14.95085898035848 SNUSat 2 1 43782U 18099AA 19212.76639820 .00000072 00000-0 11825-4 0 9997 2 43782 097.7431 284.1758 0013023 170.8024 189.3437 14.95068771035857 SnugLite 1 43784U 18099AC 19212.75413394 .00000545 00000-0 54845-4 0 9998 2 43784 097.7397 284.0844 0015209 179.6689 180.4545 14.95150545035861 ITASat 1 1 43786U 18099AE 19212.75207983 .00000559 00000-0 56143-4 0 9993 2 43786 097.7450 284.2525 0015321 178.6391 181.4874 14.95153267035865 EAGLET 1 1 43790U 18099AJ 19212.75816768 .00000389 00000-0 40274-4 0 9994 2 43790 097.7441 284.3701 0013346 182.7683 177.3466 14.95527520035567 ESEO 1 43792U 18099AL 19212.75598385 .00000408 00000-0 42017-4 0 9997 2 43792 097.7420 284.3166 0013279 179.6746 180.4486 14.95516564035621 CSIM 1 43793U 18099AM 19213.20531420 .00000603 00000-0 59252-4 0 9992 2 43793 97.7381 284.6598 0013446 176.1491 183.9836 14.95720666 35666 Astrocast 0.1 1 43798U 18099AS 19213.72457310 -.00000170 00000-0 -10037-4 0 9998 2 43798 97.7422 285.3686 0012976 160.7080 199.4635 14.95740542 36006 JO-97 1 43803U 18099AX 19213.87065493 .00000410 00000-0 42454-4 0 9991 2 43803 97.7404 285.2664 0015437 175.9855 184.1492 14.95285516 36020 Suomi 100 1 43804U 18099AY 19213.73635416 .00000387 00000-0 40283-4 0 9996 2 43804 97.7402 285.1316 0015488 176.6187 183.5141 14.95284639 36012 Al Farabi 2 1 43805U 18099AZ 19213.79694439 .00000207 00000-0 23954-4 0 9990 2 43805 97.7405 285.2099 0015529 176.6808 183.4519 14.95345132 36026 PWSat 2 1 43814U 18099BJ 19213.25219324 .00009616 00000-0 76673-3 0 9995 2 43814 97.7773 286.1414 0011460 167.8801 192.2661 15.00484154 35389 CHOMPTT 1 43855U 18104G 19213.21076842 .00000747 00000-0 30410-4 0 9995 2 43855 85.0345 27.6612 0018333 146.8306 213.4109 15.22425008 34648 ISAT 1 43879U 18111D 19212.93449640 -.00000066 00000-0 -70235-6 0 9994 2 43879 097.7146 120.3121 0011957 237.0716 122.9356 14.96005082032408 UWE-4 1 43880U 18111E 19212.69861687 .00000637 00000-0 61493-4 0 9994 2 43880 097.7162 120.1871 0010791 237.5011 122.5168 14.96250511032378 Sparrow 1 43881U 18111F 19213.69512065 .00000696 00000-0 66637-4 0 9999 2 43881 97.7163 121.1955 0011010 232.5394 127.4826 14.96297584 30529 Lume 1 1 43908U 18111AJ 19212.79677497 .00000527 00000-0 24268-4 0 9997 2 43908 097.2865 116.8696 0021047 195.0786 164.9827 15.24385128033013 FO-98 1 43933U 19003B 19213.40838257 .00000401 00000-0 20672-4 0 9994 2 43933 97.2790 269.5568 0016666 294.5337 121.9753 15.21670718 29701 FO-99 1 43937U 19003F 19213.70425306 .00000558 00000-0 26047-4 0 9993 2 43937 97.2739 270.2587 0022940 277.7805 199.9430 15.23633178 29789 Delphini 1 1 44030U 98067PW 19213.25475651 .00007328 00000-0 10566-3 0 9993 2 44030 51.6388 133.0007 0003978 317.9499 42.1187 15.57144725 28337 MYSat 1 1 44045U 18092F 19212.88452412 .00000760 00000-0 33159-4 0 9994 2 44045 051.6422 161.7096 0011177 237.8760 122.1115 15.35059809025879 AstroCast 0.2 1 44083U 19018F 19212.88680232 .00000247 00000-0 14107-4 0 9990 2 44083 097.4658 272.5255 0013077 211.7808 148.2640 15.21405315018486 AISTechSat 3 1 44103U 19018AB 19213.73571178 .00000329 00000-0 17170-4 0 9990 2 44103 97.4541 273.3812 0012337 229.2996 279.4054 15.22667444 18624 AISat 1 1 44104U 19018AC 19213.73595015 .00000397 00000-0 15625-4 0 9995 2 44104 97.5067 275.6693 0057341 270.7149 88.7521 15.30510117 18742 Prox-1 1 44339U 19036A 19213.42159914 .00000198 00000-0 -29709-5 0 9994 2 44339 24.0017 331.2561 0011402 241.7019 118.2316 14.52653136 5397 OBJECT H 1 44346U 19036H 19213.61856256 .00010858 00000-0 17278-3 0 9995 2 44346 28.5234 318.5352 0390940 140.0167 222.9894 14.96238004 5590 OBJECT J 1 44347U 19036J 19212.53467316 .00028804 00000-0 46587-3 0 9996 2 44347 028.5304 325.3415 0385948 128.7373 234.8358 14.97333920005433 OBJECT K 1 44348U 19036K 19212.67184697 .00007398 00000-0 11361-3 0 9997 2 44348 028.5189 324.4820 0390776 130.0161 233.5420 14.96692246005457 PSAT 2 1 44354U 19036R 19212.65457208 .00008169 00000-0 12443-3 0 9992 2 44354 028.5313 324.3862 0388528 129.8826 233.6597 14.97420641005437 BRICsat 2 1 44355U 19036S 19212.65305804 .00014315 00000-0 22286-3 0 9993 2 44355 028.5311 324.3761 0387138 129.9303 233.5974 14.97650018005443 Oculus-ASR 1 44356U 19036T 19213.42906259 .00032321 00000-0 48231-3 0 9996 2 44356 28.5239 318.9530 0385793 138.3497 224.7187 14.99097025 5565 CP9 1 44360U 19036X 19213.62298206 .00022173 00000-0 31291-3 0 9991 2 44360 28.5164 317.5505 0391215 140.9035 222.0508 14.99060713 5468 Move-IIb 1 44398U 19038N 19212.91180544 .00000709 00000-0 45238-4 0 9998 2 44398 097.4908 174.3434 0026303 151.4797 208.7878 15.11590711003993 SONATE 1 44400U 19038Q 19213.70527271 .00000359 00000-0 24746-4 0 9994 2 44400 97.4918 175.1198 0026271 147.2719 213.0145 15.11632411 4110 JAISAT-1 1 44419U 19038F 19213.76020457 .00000399 00000-0 26694-4 0 9992 2 44419 97.4917 175.1997 0022563 152.1945 208.0497 15.12258815 4120 LightSail-2 1 44420U 19036AC 19212.66836196 .00004364 00000-0 99547-3 0 9997 2 44420 24.0034 336.0403 0015210 239.6536 120.2473 14.52585683 3426 BO-102 1 44443U 19043A 19213.39285725 .01093482 64073-3 16231-2 0 9998 2 44443 42.7253 322.9554 0014678 337.4832 100.4320 16.03904213 1156 /EX